Regional Weather Roundup
Issued by NWS Grand Forks, ND

Home | Current Version | Previous Version | Graphics & Text | Print | Product List | Glossary On
Versions: 1 2 3 4 5 6 7 8 9 10 11 12 13 14 15 16 17 18 19 20 21 22 23 24 25 26 27 28 29 30 31 32 33 34 35 36 37 38 39 40 41 42 43 44 45 46 47 48 49 50
000
ASUS43 KFGF 231631
RWRFGF
PRAIRIE TO PINES  WEATHER ROUNDUP
NATIONAL WEATHER SERVICE EASTERN NORTH DAKOTA/GRAND FORKS ND
1100 AM CDT SAT JUL 23 2016

 **SATELLITE DATA USED TO AUGMENT SKY COVER AT AUTOMATED STATIONS**
 *****  WEATHER ACROSS EASTERN NORTH DAKOTA  *****

CITY           SKY/WX    TMP DP  RH WIND       PRES   REMARKS
GRAND FORKS    TSTM      68  64  87 N20G26    29.77F
GRAND FRKS AFB HVY RAIN  66  64  94 NE17G25   29.78F VSB 1
GRAND FRKS NWS   N/A     68 N/A N/A N20         N/A
DEVILS LAKE    LGT RAIN  66  63  88 NE20G31   29.73F
FARGO          CLOUDY    82  68  62 E10       29.71F
WAHPETON ARPT  CLOUDY    73  66  78 SE13      29.71F
$$

 ***** WEATHER ACROSS CENTRAL AND WESTERN NORTH DAKOTA  *****

CITY           SKY/WX    TMP DP  RH WIND       PRES   REMARKS
BISMARCK       CLOUDY    70  65  84 NE16      29.78S
MINOT          CLOUDY    70  65  84 NW7       29.79R
JAMESTOWN      TSTM      65  64  97 NW12G30   29.81R VSB 1/2
MINOT AFB      DRIZZLE   67  64  91 NW8       29.79R
GARRISON         N/A     70  65  84 CALM      29.80R
WILLISTON      SUNNY     76  55  48 NW12      29.84S
DICKINSON      MOSUNNY   70  62  76 NW9       29.85S
HETTINGER      MOSUNNY   77  61  57 NW28G36   29.87R
$$

 *****  OTHER AIRPORT OBSERVATIONS IN OUR AREA  *****

CITY           SKY/WX    TMP DP  RH WIND       PRES   REMARKS
WALHALLA       FAIR      64  64 100 SE7       29.82F
GRAFTON AIRPOR LGT RAIN  64  64 100 N14       29.84F
VALLEY CITY AR CLOUDY    77  77 100 CALM      29.80R
CANDO          FAIR      66  66 100 SE13G21   29.75F
CAVALIER APRT  LGT RAIN  64  64 100 MISG      29.85F
GWINNER        CLOUDY    79  73  83 S9        29.72R
ROLLA            N/A     66  66 100 NW10      29.79F
 ***** THE ABOVE OBSERVATIONS ARE NON NWS ARE NOT QUALITY
       CONTROLLED AND MAY MIS-REPORT RAIN FOR SNOW...
$$

  *****  WEATHER ACROSS NORTHERN MINNESOTA  *****

CITY           SKY/WX    TMP DP  RH WIND       PRES   REMARKS
FLAG ISLAND    CLOUDY    70  63  78 SE3       29.88S
WARROAD        CLOUDY    72  64  78 E8        29.86F
ROSEAU         CLOUDY    70  64  83 E5        29.85F
HALLOCK        LGT RAIN  66  64  94 N9        29.86R
THF RVR FALLS  CLOUDY    76  64  66 SE12      29.82F
BAUDETTE       CLOUDY    70  62  76 E9        29.87F
WASKISH        CLOUDY    75  64  69 SE10      29.84F
CROOKSTON      CLOUDY    79  64  61 SE13      29.77F
STEPHEN NDAWN    N/A     68  64  88 NW12        N/A
GREENBUSH NDAW   N/A     70  64  83 NE3         N/A
$$
  *****  WEATHER ACROSS CENTRAL AND WEST MINNESOTA  *****

CITY           SKY/WX    TMP DP  RH WIND       PRES   REMARKS
FOSSTON        CLOUDY    77  64  65 SE12      29.81F
BEMIDJI        CLOUDY    75  63  64 SE10G16   29.85F
PARK RAPIDS    CLOUDY    77  65  66 SE10      29.82F
ELBOW LAKE     FAIR      70  67  90 SE10      29.76F
WADENA         CLOUDY    72  64  78 SE12      29.80F
DETROIT LAKES  CLOUDY    77  64  65 SE14G20   29.76F
MOORHEAD       CLOUDY    81  70  69 SE14G21   29.70F
FERGUS FALLS   CLOUDY    75  66  73 SE12      29.74F
MORRIS MN      RAIN      70  68  94 E7        29.76S
STAPLES        CLOUDY    73  64  73 SE7       29.84S
$$
  *****  WEATHER ELSEWHERE ACROSS MINNESOTA  *****

CITY           SKY/WX    TMP DP  RH WIND       PRES   REMARKS
DULUTH         CLOUDY    78  61  55 SE14      29.92F
INTRNTL FALLS  MOSUNNY   72  62  71 SE6       29.91F
ELY            CLOUDY    79  57  47 SE10      29.92F
CLOQUET        CLOUDY    77  59  53 E12       29.91S
WHEATON        CLOUDY    75  70  83 SE5       29.73F
BRAINERD       CLOUDY    75  65  70 SE8       29.86R
HIBBING        CLOUDY    79  59  50 SE16      29.89F
ALEXANDRIA     TSTM      70  67  90 E10       29.83R
SAINT CLOUD    LGT RAIN  74  71  91 SW22G29   29.89R FOG
MINNEAPOLIS    TSTM      72  69  90 E13       29.91R FOG
$$

  *****  WEATHER ACROSS SOUTH DAKOTA  *****

CITY           SKY/WX    TMP DP  RH WIND       PRES   REMARKS
SIOUX FALLS    CLOUDY    79  74  84 S8        29.81F
BROOKINGS      MOSUNNY   75  71  87 S13       29.76F
WATERTOWN      CLOUDY    76  68  76 SE10      29.75S
HURON          PTSUNNY   79  71  76 S18G30    29.73F
SISSETON         N/A     72  68  87 S9        29.71F
ABERDEEN       MOSUNNY   78  69  73 S16       29.71F
MITCHELL       PTSUNNY   82  72  71 S14G26    29.77F
PIERRE         SUNNY     88  72  58 VRB5      29.71F HX  94
MOBRIDGE       MOSUNNY   86  74  67 W9        29.71F HX  94
RAPID CITY     SUNNY     83  47  28 NW35G47   29.90R
$$

  *****  SOME WEATHER IN NEARBY STATES *****

CITY           SKY/WX    TMP DP  RH WIND       PRES   REMARKS
GLASGOW MT     SUNNY     73  46  38 W25G37    29.87S
GREAT FALLS MT PTSUNNY   71  39  31 NW9G24    30.09R
CHEYENNE WY    SUNNY     85  38  18 NW16G23   30.16R
SCOTTSBLUFF NE SUNNY     86  54  33 W10       29.99R
OMAHA NE       CLOUDY    83  72  69 S9        29.82F
DES MOINES IA  PTSUNNY   90  75  61 S12       29.86F HX 100
DAVENPORT IA   CLOUDY    85  77  77 S8        29.98R HX  95
CHICAGO IL     CLOUDY    87  74  64 CALM      29.99R HX  95
EAU CLAIRE WI  CLOUDY    80  68  66 SE9       29.95R
LA CROSSE WI   RAIN      73  71  93 E3        29.96S
$$

  *****  SOME NATIONAL WEATHER *****

CITY           SKY/WX    TMP DP  RH WIND       PRES   REMARKS
LA GUARDIA NY  MOSUNNY   92  59  33 W16G22    29.84S HX  91
RALEIGH NC     MOSUNNY   89  75  63 VRB3      30.01S HX  99
ATLANTA GA     CLOUDY    88  72  58 W8        30.07S HX  94
NEW ORLEANS LA CLOUDY    91  75  59 NW8       30.01S HX 101
OKLAHOMA CITY  MOSUNNY   91  68  46 SW13      29.99S HX  95
ALBUQUERQUE NM MOSUNNY   82  49  31 VRB5      30.20S
SALT LAKE CITY MOSUNNY   82  32  16 NW5       30.15S
LOS ANGELES CA PTSUNNY   76  61  59 CALM      29.82S
BOISE ID       SUNNY     66  42  41 NW8       30.19S
SEATTLE WA     CLOUDY    62  55  77 NW3       30.29R
$$

*** WEATHER ACROSS MANITOBA...SASKATCHEWAN AND ONTARIO ***
                ***ONTARIO***

CITY           SKY/WX    TMP DP  RH WIND       PRES   REMARKS
GERALDTON      PTSUNNY   72  55  56 E8        30.03F
THUNDER BAY    PTSUNNY   75  61  60 SE13      30.01S
SIOUX LOOKOUT  CLOUDY    73  61  64 S9G18     29.95F
TORONTO        MOSUNNY   90  55  31 NW16G25   29.92F
BIG TROUT LK   SUNNY     64  45  48 SE9       29.97F
PICKLE LAKE    PTSUNNY   73  59  60 SE9       29.96F
DRYDEN         PTSUNNY   73  61  64 S10       29.95S
KENORA         CLOUDY    70  59  68 SE8       29.91F
$$
                *** MANITOBA***

CITY           SKY/WX    TMP DP  RH WIND       PRES   REMARKS
BRANDON        PTSUNNY   75  66  73 SE5       29.76F
DAUPHIN        LGT RAIN  68  64  88 E5        29.75R
ISLAND LAKE    NOT AVBL
PILOT MOUND      N/A     66  63  88 E3          N/A
THE PAS        CLOUDY    68  63  83 S7        29.75F
THOMPSON       PTSUNNY   70  54  56 SW16G22   29.78S
WINNIPEG       LGT RAIN  64  63  94 SE15      29.84F
LYNN LAKE      LGT RAIN  64  59  82 MISG      29.71R
CHURCHILL      PTSUNNY   61  48  63 S13       29.76F
GILLAM         MOSUNNY   70  48  46 S14G20    29.82F
$$
                ***SASKATCHEWAN***

CITY           SKY/WX    TMP DP  RH WIND       PRES   REMARKS
ESTEVAN        MOSUNNY   73  57  56 W16G23    29.77F
KINDERSLEY     PTSUNNY   63  57  82 NW12G21   29.84R
LLOYDMINSTER   MOSUNNY   66  54  63 NW17G24   29.84S
PRINCE ALBERT  CLOUDY    64  63  94 CALM      29.73S
REGINA         CLOUDY    66  61  82 W16G25    29.71F
YORKTON        CLOUDY    68  63  83 SE12      29.70R
N. BATTLEFORD  PTSUNNY   64  55  72 NW12      29.81R
LA RONGE       PTSUNNY   68  61  77 W5        29.72R
SASKATOON      PTSUNNY   66  64  94 N9        29.75R
SWIFT CURRENT  PTSUNNY   59  57  94 NW10      29.80S
$$
NOTE: THESE ARE AUTOMATED STATIONS WITH LIMITED QUALITY CONTROL
      "FAIR" INDICATES FEW OR NO CLOUDS BELOW 12,000 FEET WITH NO
      SIGNIFICANT WEATHER AND/OR OBSTRUCTIONS TO VISIBILITY.
      SKY/WX - SKY CONDITION AND SIGNIFICANT WEATHER.
      TMP - AIR TEMPERATURE.    DP   - DEWPOINT TEMPERATURE.
      RH  - RELATIVE HUMIDITY.  PRES - PRESSURE.
      HX  - HEAT INDEX.         WCI  - WIND CHILL INDEX.
$




USA.gov is the U.S. government's official web portal to all federal, state and local government web resources and services.